This is the latest recevied weather packets stored in our database for station/object LZ1HCO-25. If no packets are shown the sender has not sent any weather packets the latest 10 day(s).
| Time | Temp. | Humidity | Pressure | Rain* | Wind** | Luminosity | Snow |
|---|---|---|---|---|---|---|---|
| 1778063023 | 26.11° C | 40% | 967 hPa | - | - | 0 W/m² | - |
| 1778062712 | 26.11° C | 40% | 967 hPa | - | - | 0 W/m² | - |
| 1778062401 | 27.22° C | 41% | 967 hPa | - | - | 0 W/m² | - |
| 1778062089 | 27.22° C | 37% | 967 hPa | - | - | 0 W/m² | - |
| 1778061778 | 28.33° C | 42% | 967 hPa | - | - | 0 W/m² | - |
| 1778061466 | 26.67° C | 38% | 967 hPa | - | - | 0 W/m² | - |
| 1778061155 | 27.22° C | 38% | 967 hPa | - | - | 0 W/m² | - |
| 1778060844 | 26.67° C | 38% | 967 hPa | - | - | 0 W/m² | - |
| 1778060532 | 27.78° C | 38% | 967 hPa | - | - | 0 W/m² | - |
| 1778060221 | 26.67° C | 36% | 967 hPa | - | - | 0 W/m² | - |
| 1778059910 | 28.33° C | 38% | 967 hPa | - | - | 0 W/m² | - |
| 1778059598 | 27.22° C | 39% | 967 hPa | - | - | 0 W/m² | - |
| 1778059287 | 27.78° C | 36% | 967 hPa | - | - | 0 W/m² | - |
| 1778058976 | 27.22° C | 37% | 968 hPa | - | - | 0 W/m² | - |
| 1778058664 | 28.33° C | 39% | 967 hPa | - | - | 0 W/m² | - |
| 1778058353 | 26.67° C | 40% | 968 hPa | - | - | 0 W/m² | - |
| 1778058042 | 26.11° C | 40% | 968 hPa | - | - | 0 W/m² | - |
| 1778057730 | 26.67° C | 37% | 967 hPa | - | - | 0 W/m² | - |
| 1778057537 | 26.11° C | 36% | 967 hPa | - | - | 0 W/m² | - |
| 1778057226 | 26.11° C | 39% | 968 hPa | - | - | 0 W/m² | - |
| 1778056914 | 26.67° C | 38% | 968 hPa | - | - | 0 W/m² | - |
| 1778056603 | 26.67° C | 40% | 968 hPa | - | - | 0 W/m² | - |
| 1778056291 | 26.11° C | 36% | 967 hPa | - | - | 0 W/m² | - |
| 1778055980 | 26.67° C | 41% | 967 hPa | - | - | 0 W/m² | - |
| 1778055669 | 27.22° C | 38% | 967 hPa | - | - | 0 W/m² | - |
* Rain since midnight (hover to see other rain measurements)
** Current wind speed in m/s (hover to see current wind gust speed)